Showing default

SECOR 3, 1208

Orbit data source: Space-Track

SECOR 3, 1208 is an American payload satellite in LEO that was launched on Tue, 09 Mar 1965 UTC via a THOR SLV-2 AGENA D launch vehicle from the Air Force Western Test Range (AFWTR). Payload-class satellites include a variety of spacecraft equipped with specific instruments for various scientific and technological missions. These include communications satellites like Starlink; space stations such as the ISS; scientific satellites like the Hubble; Earth observation satellites from companies like Planet Labs, Umbra, and HawkEye 360; GPS; miniature CubeSats for education and research; and military/defense satellites.

Loading next visibility...
Identifier
1208, 1965-016E
Orbit
LEO
Country
Flag of USUS
Related business
Manufacturer
ITT
Mission
Spacecraft
Bus & Motor
SECOR, Unknown motor
Mass
18 kg wet, 18 kg dry
Launch date (UTC)
1965-03-09 (61 years ago)
Launch vehicle
THOR SLV-2 AGENA D
Launch site
Air Force Western Test Range (AFWTR)
Object type
Payload
Rocket body
Debris
Shape & HBR
Unknown
Radar Cross Section
Medium (>0.1 m² and <1 m²)

Expand to show TLE details & history
Last TLE update: 8 hours ago

TLE from 8 hours ago
0 SECOR 3
1 01208U 65016E   26035.31683221  .00000059  00000-0  80894-4 0  9998
2 01208  70.0792 107.1023 0023066 261.3475 165.7779 13.96056994100620
Epoch: 2026-02-04T07:36Z
TLE epoch observation values (Epoch: 2026-02-04T07:36:14.302Z)
Latitude
60.17977°
Longitude
-102.46784°
Altitude
933.414 km
Speed
7.383 km/s
True Right ascension
09h 44m 18s
True Declination
60° 02' 05"
Sunlit
Object was in full shadow at epoch
Visualization orbit readout
Latitude
Unknown
Longitude
Unknown
Altitude
Unknown
Speed
Unknown
Apparent Right ascension
Unknown
Apparent Declination
Unknown
Sunlit
N/A
Visualization observer readout
Local Sidereal Time
17:31:20
Azimuth
Unknown
Elevation
Unknown
Doppler factor
Unknown
Orbital elements
Apogee altitude
922.317 km
Perigee altitude
888.716 km
Semi-major axis
7,283.653 km
Eccentricity
0.00231
Inclination
70.0792°
RAAN
107.1023°
Arg. of periapsis
261.3475°
True anomaly
165.84266°
Mean anomaly
165.7779°
Eccentric anomaly
165.8103°
Mean motion
3.49156 °/min
Orbital period
103.11 mins
BSTAR
0.000080894
Loading maneuver chart data...
Computing Atmospheric mass density...
Loading historical data...
Loading historical data...
Loading historical data...
Loading historical data...
Loading historical data...
Loading historical data...
Loading historical data...

Documentation

Showing up to 5 results
|